This demonstration page uses our WeatherBlox Daily Observations layout. Learn more.

41.55636, -103.73856

Hourly Observations for April 11, 2019

Temp ( °F °C ) Dew Point ( °F °C ) Humidity (%) Winds ( mph kmh ) Pressure ( in mb ) Visibility ( mi km ) Precip ( " mm )
12:58 am 00:58 Cloudy with Snow 16 -9 14 -10.2 91 91 N 20 31 29.89 1012 3 4.82802 0 0
1:58 am 01:58 Mostly Cloudy with Heavy Snow 15 -9.4 13 -10.7 90 90 N 24 39 29.89 1012 3 4.82802 0 0
2:58 am 02:58 Mostly Cloudy with Heavy Snow 15 -9.5 13 -10.8 90 90 N 24 39 29.93 1013 0.25 0.402335 0 0
3:58 am 03:58 Cloudy with Snow 15 -9.6 12 -10.9 90 90 N 20 31 29.96 1015 0.5 0.80467 0 0
4:58 am 04:58 Cloudy with Snow 15 -9.5 13 -10.8 90 90 N 22 35 29.96 1015 5 8.0467 0 0
5:58 am 05:58 Cloudy with Heavy Snow 15 -9.4 13 -10.7 90 90 N 24 39 29.92 1013 3 4.82802 0 0
6:58 am 06:58 Windy with Snow Likely 15 -9.3 13 -10.5 91 91 N 22 35 29.95 1014 1 1.60934 0 0
7:58 am 07:58 Windy with Snow Likely 16 -9 13 -10.3 90 90 N 22 35 29.93 1014 1 1.60934 0 0
8:58 am 08:58 Mostly Cloudy with Scattered Snow Showers 16 -8.8 14 -10.1 90 90 NNW 20 31 29.91 1013 1 1.60934 0 0
9:58 am 09:58 Mostly Cloudy with Scattered Snow Showers 17 -8.4 15 -9.7 90 90 NNW 22 35 29.91 1013 1 1.60934 0 0
10:58 am 10:58 Cloudy with Snow 17 -8.3 15 -9.5 91 91 NNW 26 43 29.91 1013 7 11.26538 0 0
11:58 am 11:58 Mostly Cloudy with Snow 17 -8.2 15 -9.5 90 90 NNW 24 39 29.91 1013 0.5 0.80467 0 0
12:58 pm 12:58 Windy with Snow Likely 18 -8 15 -9.2 91 91 NNW 22 35 29.9 1013 7 11.26538 0 0
1:58 pm 13:58 Windy with Snow Likely 18 -7.6 16 -8.9 91 91 NNW 25 41 29.91 1013 7 11.26538 0 0
2:58 pm 14:58 Mostly Cloudy with Scattered Snow Showers 19 -7.3 17 -8.5 91 91 NNW 26 43 29.88 1012 1 1.60934 0 0
3:58 pm 15:58 Windy with Snow Likely 20 -6.8 18 -8 91 91 NNW 29 46 29.88 1012 0.75 1.207005 0 0
4:56 pm 16:56 Windy with Snow Likely 21 -6.1 19 -7.5 90 90 NNW 28 44 29.88 1012 0.75 1.207005 0 0
5:56 pm 17:56 Windy with Snow Likely 22 -5.7 19 -7 91 91 NNW 30 48 29.87 1011 0.75 1.207005 0 0
6:56 pm 18:56 Mostly Cloudy with Scattered Snow Showers 23 -5.1 20 -6.5 90 90 NNW 30 48 29.83 1010 1.25 2.011675 0 0
7:56 pm 19:56 Windy with Snow Showers Likely 22 -5.3 20 -6.8 89 89 NNW 29 46 29.84 1011 1 1.60934 0 0
8:56 pm 20:56 Mostly Cloudy with Scattered Snow Showers 22 -5.5 20 -6.7 91 91 N 28 44 29.85 1011 1 1.60934 0 0
9:58 pm 21:58 Mostly Cloudy with Scattered Snow Showers 22 -5.4 20 -6.9 89 89 NNW 30 48 29.86 1011 2.25 3.621015 0 0
10:58 pm 22:58 Mostly Cloudy with Scattered Snow Showers 22 -5.5 19 -7 89 89 NNW 28 44 29.87 1012 1.5 2.41401 0 0
11:58 pm 23:58 Mostly Cloudy with Scattered Snow Showers 22 -5.6 20 -6.9 91 91 NNW 22 35 29.88 1012 3 4.82802 0 0

Powered by AerisWeather